Regional Weather Roundup
Issued by NWS Sterling, VA

Home | Current Version | Previous Version | Text Only | Print | Product List | Glossary Off
Versions: 1 2 3 4 5 6 7 8 9 10 11 12 13 14 15 16 17 18 19 20 21 22 23 24 25 26 27 28 29 30 31 32 33 34 35 36 37 38 39 40 41 42 43 44 45 46 47 48 49

000
ASUS41 KLWX 070210
RWRLWX

REGIONAL WEATHER ROUNDUP
NATIONAL WEATHER SERVICE BALTIMORE MD/WASHINGTON DC
900 PM EST SAT FEB 06 2016

Note: "FAIR" indicates few or no clouds below 12,000 feet
with no significant weather and/or obstructions to visibility.
 TC=TEMPERATURE CELSIUS

 * =Non NWS site. Station does not report precipitation (e.g. rain,
    snow, etc.), thunder, or fog.

DCZ001-MDZ009-015-VAZ040>042-051-053>054-070300-
WASHINGTON METRO

CITY           SKY/WX    TMP DP  RH WIND       PRES   REMARKS
WASHINGTON NAT MOCLDY    38  25  59 S8        30.33R
DULLES         MOCLDY    35  19  52 S6        30.31R
ANDREWS AFB    PTCLDY    34  22  61 S7        30.30S
FT BELVOIR     MOCLDY    31  24  75 CALM      30.32S
QUANTICO       FAIR      34  27  75 NW3       30.34S
LEESBURG*      FAIR      34  27  75 S6        30.31S
MANASSAS*      CLEAR     28  27  93 CALM      30.32S
GAITHERSBURG*  PTCLDY    36  16  44 S3        30.33S

$$

MDZ006>007-011-014-070300-
BALTIMORE METRO

CITY           SKY/WX    TMP DP  RH WIND       PRES   REMARKS
BWI AIRPORT    CLOUDY    35  22  58 S3        30.31R
MD SCIENCE CTR   N/A     38  23  55 MISG      30.32R
MARTIN STATE   CLEAR     37  28  70 S3        30.33S
ANNAPOLIS      PTCLDY    37  28  70 S5        30.32S
FORT MEADE*    CLOUDY    30  27  86 CALM      30.34S

$$

MDZ012-015-019>023-070300-
MARYLAND EASTERN SHORE

CITY           SKY/WX    TMP DP  RH WIND       PRES   REMARKS
OCEAN CITY     CLEAR     30  27  88 CALM      30.34F
SALISBURY      CLEAR     28  26  92 CALM      30.34S
BAY BRIDGE AP*   N/A     36  28  75 CALM      30.33S
EASTON*        MOCLDY    32  25  74 CALM      30.37

$$

MDZ017>025-070300-
SOUTHERN MARYLAND

CITY           SKY/WX    TMP DP  RH WIND       PRES   REMARKS
PATUXENT RIVER CLEAR     34  22  61 S6        30.33F
ST INIGOES     CLEAR     30  26  85 CALM      30.33F
LEONARDTOWN*   CLEAR     32  25  74 CALM      30.35F

$$

MDZ003>005-070300-
NORTH CENTRAL MARYLAND

CITY           SKY/WX    TMP DP  RH WIND       PRES   REMARKS
FREDERICK*     PTCLDY    30  28  93 CALM      30.32S
HAGERSTOWN APT PTCLDY    35  19  52 S5        30.26S
WESTMINSTER*   PTCLDY    36  27  69 S7        30.27S

$$

MDZ501>502-070300-
WESTERN MARYLAND

CITY           SKY/WX    TMP DP  RH WIND       PRES   REMARKS
OAKLAND*       CLOUDY    30  14  51 W7        30.17S
CUMBERLAND*    CLOUDY    34  23  64 CALM      30.28S

$$

VAZ025>031-070300-
SHENANDOAH VALLEY

CITY           SKY/WX    TMP DP  RH WIND       PRES   REMARKS
WINCHESTER*    FAIR      36  21  55 S3        30.26F
FRONT ROYAL*   FAIR      34  21  60 S3        30.26F
LURAY*         FAIR      34  19  55 S5        30.26F
NEW MARKET*    FAIR      31  26  83 W3        30.25F
STAUNTON*      FAIR      35  22  59 CALM      30.28S
WAYNESBORO*    FAIR      31  17  56 CALM      30.25F

$$

WVZ021-048>050-054>055-070300-
EASTERN WEST VIRGINIA PANHANDLE

CITY           SKY/WX    TMP DP  RH WIND       PRES   REMARKS
MARTINSBURG    FAIR      33  18  53 SW3       30.27R
PETERSBURG*    FAIR      32  25  76 CALM      30.26S

$$

VAZ036>039-050-070300-
CENTRAL FOOTHILLS

CITY           SKY/WX    TMP DP  RH WIND       PRES   REMARKS
CHARLOTTESVILL FAIR      38  16  40 CALM      30.28F
CULPEPER*      FAIR      29  23  78 CALM      30.31F
ORANGE*        FAIR      32  23  69 CALM      30.32F
GORDONSVILLE*  FAIR      29  24  80 CALM      30.30S
WARRENTON*     FAIR      30  25  79 CALM      30.30F

$$

VAZ055>057-070300-
NORTH AND CENTRAL PIEDMONT

CITY           SKY/WX    TMP DP  RH WIND       PRES   REMARKS
FREDERICKSBRG* FAIR      31  24  76 CALM      30.31F
STAFFORD*      FAIR      29  21  73 CALM      30.36F

$$

NCZ024-NYZ072-PAZ021-071-VAZ022-071-070300-
OTHER REGIONAL OBSERVATIONS

CITY           SKY/WX    TMP DP  RH WIND       PRES   REMARKS
NEW YORK CITY  CLOUDY    38  20  48 VRB3      30.30F
PHILADELPHIA   MOCLDY    36  25  64 S7        30.32S
PITTSBURGH     PTCLDY    35  12  38 W5        30.21S
ROANOKE        FAIR      33  20  58 CALM      30.29S
RICHMOND       FAIR      32  24  72 E3        30.31F
RALEIGH        CLOUDY    41  21  44 E6        30.29F

$$

ANZ530>537-070300-
MARINE OBSERVATIONS

STATION/POSITION TIME  TEMP    WIND        PRES
                       AIR SEA DIR/SP/G
                 (UTC) (F)     (DEG/KT/KT) (MB)
THOMAS PT LIGHT  NOT AVBL
BALT KEY BRIDGE  0100   38     160/  7/  8 1026.5R
COVE POINT       0100   38     190/ 11/ 12 1028.1R
LEWISETTA        0100   37 42  220/  5/  6 1027.4R
SOLOMONS ISLAND  0100   37 42  180/  4/  5   N/A

$$




USA.gov is the U.S. government's official web portal to all federal, state and local government web resources and services.